| time (UTC) | temp C | wind direction | speed KPH | gust KPH | rain 1hr cm | rain 24hr cm | rain mn cm | humidity % | barometer mb |
| 20260510135541 | 21 | 135 | 8.0 | 16.1 | 0.00 | 0.00 | 0.00 | 61 | 1012.4 |
| 20260510134521 | 21 | 135 | 9.7 | 19.3 | 0.00 | 0.00 | 0.00 | 62 | 1012.5 |
| 20260510133526 | 21 | 158 | 8.0 | 19.3 | 0.00 | 0.00 | 0.00 | 61 | 1012.6 |
| 20260510132534 | 22 | 135 | 6.4 | 12.9 | 0.00 | 0.00 | 0.00 | 56 | 1012.7 |
| 20260510131521 | 22 | 158 | 8.0 | 16.1 | 0.00 | 0.00 | 0.00 | 53 | 1012.7 |
| 20260510130521 | 23 | 180 | 9.7 | 20.9 | 0.00 | 0.00 | 0.00 | 54 | 1012.7 |
| 20260510125527 | 23 | 158 | 11.3 | 25.7 | 0.00 | 0.03 | 0.00 | 56 | 1012.6 |
| 20260510124532 | 23 | 135 | 8.0 | 20.9 | 0.00 | 0.05 | 0.00 | 56 | 1012.8 |
| 20260510123557 | 22 | 135 | 11.3 | 20.9 | 0.00 | 0.08 | 0.00 | 54 | 1012.9 |
| 20260510122541 | 23 | 180 | 9.7 | 22.5 | 0.00 | 0.13 | 0.00 | 54 | 1013.1 |
| 20260510121521 | 23 | 225 | 4.8 | 20.9 | 0.00 | 0.20 | 0.00 | 50 | 1013.1 |
| 20260510120521 | 23 | 225 | 9.7 | 19.3 | 0.00 | 0.28 | 0.00 | 48 | 1013.4 |
| 20260510115525 | 22 | 293 | 9.7 | 20.9 | 0.00 | 0.33 | 0.00 | 47 | 1013.5 |
| 20260510114521 | 23 | 225 | 6.4 | 16.1 | 0.00 | 0.33 | 0.00 | 47 | 1013.8 |
| 20260510113521 | 23 | 225 | 6.4 | 22.5 | 0.00 | 0.33 | 0.00 | 47 | 1013.7 |
| 20260510112521 | 23 | 225 | 3.2 | 14.5 | 0.00 | 0.36 | 0.00 | 47 | 1013.9 |
| 20260510111521 | 22 | 225 | 4.8 | 17.7 | 0.00 | 0.38 | 0.00 | 50 | 1014.0 |
| 20260510110522 | 22 | 248 | 4.8 | 14.5 | 0.00 | 0.41 | 0.00 | 50 | 1014.2 |
| 20260510105521 | 22 | 225 | 6.4 | 19.3 | 0.00 | 0.41 | 0.00 | 51 | 1014.2 |
| 20260510104521 | 22 | 293 | 1.6 | 8.0 | 0.00 | 0.43 | 0.00 | 53 | 1014.4 |
| 20260510103525 | 21 | 293 | 9.7 | 19.3 | 0.00 | 0.43 | 0.00 | 56 | 1014.5 |
| 20260510102524 | 21 | 113 | 1.6 | 6.4 | 0.00 | 0.48 | 0.00 | 58 | 1014.5 |
| 20260510101523 | 21 | 113 | 1.6 | 12.9 | 0.00 | 0.53 | 0.00 | 59 | 1014.6 |
| 20260510100521 | 21 | 0.0 | 8.0 | 0.00 | 0.58 | 0.00 | 61 | 1014.7 | |
| 20260510095523 | 20 | 293 | 3.2 | 8.0 | 0.00 | 0.66 | 0.00 | 61 | 1014.8 |
| 20260510094523 | 20 | 225 | 3.2 | 11.3 | 0.00 | 0.71 | 0.00 | 63 | 1014.8 |
| 20260510093522 | 20 | 180 | 4.8 | 12.9 | 0.00 | 0.76 | 0.00 | 63 | 1014.8 |
| 20260510092523 | 20 | 203 | 4.8 | 14.5 | 0.00 | 0.89 | 0.00 | 62 | 1014.8 |
| 20260510091523 | 19 | 135 | 4.8 | 11.3 | 0.00 | 0.94 | 0.00 | 64 | 1014.8 |
| 20260510090523 | 19 | 135 | 3.2 | 11.3 | 0.00 | 0.99 | 0.00 | 65 | 1014.9 |
| 20260510085523 | 19 | 180 | 3.2 | 9.7 | 0.00 | 0.99 | 0.00 | 63 | 1014.9 |
| 20260510084523 | 19 | 180 | 1.6 | 8.0 | 0.00 | 0.99 | 0.00 | 62 | 1014.9 |
| 20260510083522 | 19 | 180 | 1.6 | 4.8 | 0.00 | 0.99 | 0.00 | 61 | 1014.9 |
| 20260510082523 | 18 | 203 | 1.6 | 9.7 | 0.00 | 0.99 | 0.00 | 64 | 1015.0 |
| 20260510081523 | 18 | 203 | 6.4 | 12.9 | 0.00 | 0.99 | 0.00 | 65 | 1015.0 |
| 20260510080522 | 18 | 203 | 4.8 | 9.7 | 0.00 | 0.99 | 0.00 | 65 | 1015.1 |
| 20260510075527 | 18 | 225 | 3.2 | 8.0 | 0.00 | 0.99 | 0.00 | 63 | 1015.0 |
| 20260510074522 | 18 | 0.0 | 9.7 | 0.00 | 0.99 | 0.00 | 65 | 1015.1 | |
| 20260510073522 | 17 | 0.0 | 1.6 | 0.00 | 0.99 | 0.00 | 68 | 1015.0 | |
| 20260510072523 | 17 | 0.0 | 1.6 | 0.00 | 0.99 | 0.00 | 69 | 1014.9 | |
| 20260510071522 | 16 | 270 | 1.6 | 4.8 | 0.00 | 0.99 | 0.00 | 70 | 1014.9 |
| 20260510070523 | 16 | 225 | 3.2 | 9.7 | 0.00 | 0.99 | 0.00 | 74 | 1014.8 |
| 20260510065522 | 16 | 225 | 1.6 | 8.0 | 0.00 | 0.99 | 0.00 | 76 | 1014.8 |
| 20260510064523 | 15 | 0.0 | 4.8 | 0.00 | 0.99 | 0.00 | 79 | 1014.6 | |
| 20260510063522 | 14 | 225 | 1.6 | 6.4 | 0.00 | 0.99 | 0.00 | 84 | 1014.6 |
| 20260510062527 | 13 | 225 | 1.6 | 4.8 | 0.00 | 0.99 | 0.00 | 84 | 1014.6 |
| 20260510061522 | 13 | 203 | 1.6 | 4.8 | 0.00 | 0.99 | 0.00 | 84 | 1014.4 |
| 20260510060524 | 13 | 0.0 | 1.6 | 0.00 | 0.99 | 0.00 | 86 | 1014.3 | |
| 20260510055522 | 13 | 0.0 | 4.8 | 0.00 | 0.99 | 0.00 | 87 | 1014.2 | |
| 20260510054522 | 12 | 293 | 1.6 | 4.8 | 0.00 | 0.99 | 0.00 | 89 | 1014.1 |
| 20260510053546 | 12 | 293 | 1.6 | 4.8 | 0.00 | 0.99 | 0.00 | 89 | 1014.0 |
| 20260510052523 | 12 | 0.0 | 1.6 | 0.00 | 0.99 | 0.00 | 90 | 1013.9 | |
| 20260510051522 | 12 | 0.0 | 1.6 | 0.00 | 0.99 | 0.00 | 90 | 1013.8 | |
| 20260510050522 | 12 | 0.0 | 4.8 | 0.00 | 0.99 | 0.00 | 88 | 1013.7 | |
| 20260510045524 | 13 | 0.0 | 3.2 | 0.00 | 0.99 | 0.00 | 86 | 1013.8 | |
| 20260510044524 | 13 | 0.0 | 3.2 | 0.00 | 0.99 | 0.00 | 88 | 1013.8 | |
| 20260510043520 | 13 | 248 | 1.6 | 6.4 | 0.00 | 0.99 | 0.00 | 86 | 1013.8 |
| 20260510042522 | 13 | 293 | 3.2 | 8.0 | 0.00 | 0.99 | 0.00 | 89 | 1013.8 |
| 20260510041522 | 12 | 0.0 | 3.2 | 0.00 | 0.99 | 0.00 | 91 | 1013.6 | |
| 20260510040522 | 12 | 0.0 | 1.6 | 0.00 | 0.99 | 0.00 | 92 | 1013.6 | |
| 20260510035522 | 12 | 0.0 | 3.2 | 0.00 | 0.99 | 0.00 | 92 | 1013.5 | |
| 20260510034522 | 12 | 0.0 | 0.0 | 0.00 | 0.99 | 0.00 | 92 | 1013.6 | |
| 20260510033543 | 12 | 0.0 | 3.2 | 0.00 | 0.99 | 0.00 | 92 | 1013.6 | |
| 20260510032542 | 12 | 0.0 | 3.2 | 0.00 | 0.99 | 0.00 | 92 | 1013.6 | |
| 20260510031522 | 12 | 248 | 1.6 | 6.4 | 0.00 | 0.99 | 0.00 | 92 | 1013.6 |
| 20260510030544 | 12 | 0.0 | 1.6 | 0.00 | 0.99 | 0.00 | 92 | 1013.7 | |
| 20260510025522 | 12 | 0.0 | 0.0 | 0.00 | 0.99 | 0.00 | 92 | 1013.7 | |
| 20260510024521 | 12 | 0.0 | 4.8 | 0.00 | 0.99 | 0.00 | 92 | 1013.7 | |
| 20260510023542 | 12 | 0.0 | 0.0 | 0.00 | 0.99 | 0.00 | 92 | 1013.6 | |
| 20260510022523 | 12 | 0.0 | 1.6 | 0.00 | 0.99 | 0.00 | 91 | 1013.7 | |
| 20260510021524 | 12 | 0.0 | 3.2 | 0.00 | 0.99 | 0.00 | 92 | 1013.8 | |
| 20260510020542 | 12 | 0.0 | 3.2 | 0.00 | 0.99 | 0.00 | 92 | 1013.8 | |
| 20260510015522 | 12 | 0.0 | 0.0 | 0.00 | 0.99 | 0.00 | 91 | 1013.7 | |
| 20260510014526 | 12 | 0.0 | 1.6 | 0.00 | 0.99 | 0.00 | 91 | 1013.8 | |
| 20260510013522 | 13 | 0.0 | 0.0 | 0.00 | 0.99 | 0.00 | 91 | 1013.8 | |
| 20260510012527 | 13 | 0.0 | 0.0 | 0.00 | 0.99 | 0.00 | 90 | 1013.9 | |
| 20260510011523 | 13 | 0.0 | 3.2 | 0.00 | 0.99 | 0.00 | 89 | 1013.9 | |
| 20260510010522 | 13 | 0.0 | 1.6 | 0.00 | 0.99 | 0.00 | 88 | 1014.0 | |
| 20260510005522 | 14 | 0.0 | 3.2 | 0.00 | 0.99 | 0.00 | 87 | 1014.1 | |
| 20260510004522 | 14 | 0.0 | 1.6 | 0.00 | 0.99 | 0.00 | 87 | 1014.2 | |
| 20260510003522 | 14 | 0.0 | 3.2 | 0.00 | 0.99 | 0.00 | 87 | 1014.3 | |
| 20260510002542 | 14 | 0.0 | 3.2 | 0.00 | 0.99 | 0.00 | 86 | 1014.3 | |
| 20260510001525 | 14 | 0.0 | 1.6 | 0.00 | 0.99 | 0.00 | 86 | 1014.3 | |
| 20260510000520 | 15 | 0.0 | 1.6 | 0.00 | 0.99 | 0.00 | 86 | 1014.4 | |
| 20260509235521 | 15 | 0.0 | 1.6 | 0.00 | 0.99 | 0.99 | 87 | 1014.5 | |
| 20260509234544 | 15 | 0.0 | 3.2 | 0.00 | 0.99 | 0.99 | 86 | 1014.6 | |
| 20260509233545 | 15 | 0.0 | 1.6 | 0.00 | 0.99 | 0.99 | 88 | 1014.6 | |
| 20260509232522 | 15 | 0.0 | 1.6 | 0.00 | 0.99 | 0.99 | 88 | 1014.6 | |
| 20260509231523 | 15 | 0.0 | 1.6 | 0.00 | 0.99 | 0.99 | 88 | 1014.7 | |
| 20260509230543 | 15 | 0.0 | 3.2 | 0.00 | 0.99 | 0.99 | 89 | 1014.6 | |
| 20260509225522 | 15 | 0.0 | 0.0 | 0.00 | 0.99 | 0.99 | 89 | 1014.6 | |
| 20260509224523 | 15 | 225 | 1.6 | 6.4 | 0.00 | 0.99 | 0.99 | 88 | 1014.9 |
| 20260509223522 | 15 | 225 | 1.6 | 4.8 | 0.00 | 0.99 | 0.99 | 88 | 1015.0 |
| 20260509222522 | 15 | 203 | 1.6 | 6.4 | 0.00 | 0.99 | 0.99 | 88 | 1015.0 |
| 20260509221601 | 15 | 225 | 1.6 | 8.0 | 0.00 | 0.99 | 0.99 | 89 | 1015.0 |
| 20260509220523 | 15 | 293 | 1.6 | 8.0 | 0.00 | 0.99 | 0.99 | 89 | 1014.9 |
| 20260509215542 | 15 | 0.0 | 1.6 | 0.00 | 0.99 | 0.99 | 89 | 1015.2 | |
| 20260509214521 | 15 | 0.0 | 4.8 | 0.00 | 0.99 | 0.99 | 90 | 1015.0 | |
| 20260509213524 | 15 | 0.0 | 4.8 | 0.00 | 0.99 | 0.99 | 89 | 1015.1 | |
| 20260509212542 | 15 | 0.0 | 4.8 | 0.00 | 0.99 | 0.99 | 89 | 1015.0 | |
| 20260509211545 | 16 | 0.0 | 1.6 | 0.00 | 0.99 | 0.99 | 88 | 1014.9 | |
| 20260509210521 | 16 | 0.0 | 3.2 | 0.00 | 0.99 | 0.99 | 88 | 1015.0 | |
| 20260509205522 | 16 | 0.0 | 1.6 | 0.00 | 0.99 | 0.99 | 89 | 1015.1 | |
| 20260509204522 | 15 | 0.0 | 1.6 | 0.00 | 0.99 | 0.99 | 89 | 1015.1 | |
| 20260509203524 | 15 | 0.0 | 0.0 | 0.00 | 0.99 | 0.99 | 88 | 1014.9 | |
| 20260509202522 | 16 | 0.0 | 0.0 | 0.00 | 0.99 | 0.99 | 88 | 1014.7 | |
| 20260509201521 | 16 | 0.0 | 1.6 | 0.00 | 0.99 | 0.99 | 87 | 1014.7 | |
| 20260509200522 | 16 | 0.0 | 3.2 | 0.00 | 0.99 | 0.99 | 87 | 1014.7 | |
| 20260509195522 | 16 | 0.0 | 3.2 | 0.00 | 0.99 | 0.99 | 87 | 1014.5 | |
| 20260509194521 | 16 | 0.0 | 6.4 | 0.00 | 0.99 | 0.99 | 87 | 1014.3 | |
| 20260509193524 | 16 | 0.0 | 1.6 | 0.00 | 0.99 | 0.99 | 88 | 1014.2 | |
| 20260509192522 | 16 | 0.0 | 4.8 | 0.00 | 0.99 | 0.99 | 88 | 1013.8 | |
| 20260509191541 | 16 | 0.0 | 1.6 | 0.00 | 0.99 | 0.99 | 87 | 1013.6 | |
| 20260509190521 | 16 | 0.0 | 1.6 | 0.00 | 0.99 | 0.99 | 87 | 1013.6 | |
| 20260509185521 | 16 | 0.0 | 3.2 | 0.00 | 0.99 | 0.99 | 87 | 1013.5 | |
| 20260509184541 | 16 | 0.0 | 4.8 | 0.00 | 0.99 | 0.99 | 87 | 1013.4 | |
| 20260509183521 | 16 | 0.0 | 1.6 | 0.00 | 0.99 | 0.99 | 87 | 1013.4 | |
| 20260509182523 | 16 | 135 | 1.6 | 6.4 | 0.00 | 0.99 | 0.99 | 88 | 1013.3 |
| 20260509181542 | 16 | 135 | 1.6 | 4.8 | 0.00 | 0.99 | 0.99 | 88 | 1013.3 |
| 20260509180602 | 16 | 0.0 | 3.2 | 0.00 | 0.99 | 0.99 | 88 | 1013.0 | |
| 20260509175527 | 16 | 158 | 3.2 | 8.0 | 0.00 | 0.99 | 0.99 | 87 | 1012.5 |
| 20260509174521 | 17 | 135 | 3.2 | 9.7 | 0.00 | 0.99 | 0.99 | 86 | 1012.3 |
| 20260509173521 | 17 | 68 | 3.2 | 9.7 | 0.00 | 0.99 | 0.99 | 83 | 1012.0 |
| 20260509172521 | 17 | 68 | 6.4 | 11.3 | 0.00 | 0.99 | 0.99 | 86 | 1012.0 |
| 20260509171521 | 17 | 68 | 3.2 | 8.0 | 0.00 | 0.99 | 0.99 | 94 | 1011.9 |
| 20260509170521 | 17 | 113 | 1.6 | 4.8 | 0.00 | 0.99 | 0.99 | 95 | 1011.8 |
| 20260509165521 | 17 | 0.0 | 4.8 | 0.00 | 0.99 | 0.99 | 96 | 1011.9 | |
| 20260509164521 | 17 | 0.0 | 3.2 | 0.00 | 0.99 | 0.99 | 97 | 1012.0 | |
| 20260509163521 | 16 | 135 | 1.6 | 8.0 | 0.00 | 0.99 | 0.99 | 96 | 1012.1 |
| 20260509162541 | 16 | 0.0 | 3.2 | 0.00 | 0.99 | 0.99 | 96 | 1012.1 | |
| 20260509161541 | 16 | 113 | 1.6 | 4.8 | 0.00 | 0.99 | 0.99 | 96 | 1012.1 |
| 20260509160521 | 16 | 113 | 3.2 | 8.0 | 0.00 | 0.99 | 0.99 | 96 | 1012.1 |
| 20260509155521 | 16 | 0.0 | 8.0 | 0.00 | 0.99 | 0.99 | 97 | 1012.1 | |
| 20260509154521 | 16 | 0.0 | 6.4 | 0.00 | 0.99 | 0.99 | 96 | 1012.2 | |
| 20260509153542 | 16 | 0.0 | 3.2 | 0.00 | 0.99 | 0.99 | 97 | 1012.2 | |
| 20260509152702 | 16 | 315 | 1.6 | 9.7 | 0.00 | 0.99 | 0.99 | 97 | 1012.3 |
| 20260509151521 | 15 | 315 | 4.8 | 9.7 | 0.00 | 0.99 | 0.99 | 96 | 1012.4 |
| 20260509150521 | 15 | 338 | 4.8 | 14.5 | 0.00 | 0.99 | 0.99 | 97 | 1012.4 |
| 20260509145521 | 15 | 293 | 3.2 | 12.9 | 0.00 | 0.99 | 0.99 | 97 | 1012.4 |
| 20260509144521 | 15 | 45 | 3.2 | 11.3 | 0.00 | 0.99 | 0.99 | 97 | 1012.4 |
| 20260509143521 | 15 | 315 | 4.8 | 9.7 | 0.00 | 0.99 | 0.99 | 97 | 1012.7 |
| 20260509142520 | 15 | 315 | 3.2 | 8.0 | 0.00 | 0.99 | 0.99 | 98 | 1012.8 |
| 20260509141541 | 14 | 315 | 6.4 | 11.3 | 0.00 | 0.99 | 0.99 | 98 | 1012.9 |